TimeCEST,TemperatureF,Dew PointF,Humidity,Sea Level PressureIn,VisibilityMPH,Wind Direction,Wind SpeedMPH,Gust SpeedMPH,PrecipitationIn,Events,Conditions,WindDirDegrees,DateUTC
12:20 AM,68.0,60.8,78,30.01,6.2,NE,3.5,-,N/A,,Scattered Clouds,40,2013-06-28 22:20:00
12:50 AM,68.0,57.2,68,29.98,6.2,Variable,2.3,-,N/A,,Scattered Clouds,0,2013-06-28 22:50:00
1:20 AM,68.0,57.2,68,29.98,6.2,NE,3.5,-,N/A,,Scattered Clouds,40,2013-06-28 23:20:00
1:50 AM,68.0,57.2,68,29.98,6.2,NE,4.6,-,N/A,,Scattered Clouds,40,2013-06-28 23:50:00
2:20 AM,66.2,57.2,73,29.98,6.2,NNE,4.6,-,N/A,,Scattered Clouds,30,2013-06-29 00:20:00
2:50 AM,68.0,57.2,68,29.98,6.2,NNE,3.5,-,N/A,,Scattered Clouds,20,2013-06-29 00:50:00
3:20 AM,68.0,57.2,68,29.95,6.2,Variable,2.3,-,N/A,,Scattered Clouds,0,2013-06-29 01:20:00
3:50 AM,66.2,57.2,73,29.95,6.2,NNE,3.5,-,N/A,,Scattered Clouds,20,2013-06-29 01:50:00
4:20 AM,66.2,57.2,73,29.95,6.2,NNE,4.6,-,N/A,,Scattered Clouds,30,2013-06-29 02:20:00
4:50 AM,66.2,57.2,73,29.95,6.2,NNE,9.2,-,N/A,,Scattered Clouds,20,2013-06-29 02:50:00
5:20 AM,66.2,57.2,73,29.95,6.2,North,11.5,-,N/A,Rain-Thunderstorm,Thunderstorms and Rain,10,2013-06-29 03:20:00
5:50 AM,64.4,57.2,77,29.95,6.2,NNE,11.5,-,N/A,Rain-Thunderstorm,Thunderstorms and Rain,20,2013-06-29 03:50:00
6:20 AM,64.4,57.2,77,29.98,6.2,NNW,5.8,-,N/A,Rain-Thunderstorm,Light Thunderstorms and Rain,340,2013-06-29 04:20:00
6:50 AM,62.6,57.2,82,29.95,5.0,Variable,2.3,-,N/A,Rain,Rain,0,2013-06-29 04:50:00
7:20 AM,64.4,57.2,77,29.98,6.2,NW,2.3,-,N/A,,Scattered Clouds,320,2013-06-29 05:20:00
7:50 AM,66.2,57.2,73,29.98,6.2,Variable,1.2,-,N/A,,Scattered Clouds,0,2013-06-29 05:50:00
8:20 AM,68.0,57.2,68,29.98,6.2,NNE,6.9,-,N/A,,Partly Cloudy,30,2013-06-29 06:20:00
8:50 AM,69.8,57.2,64,29.98,-9999.0,NNE,5.8,-,N/A,,Clear,30,2013-06-29 06:50:00
9:20 AM,71.6,59.0,64,29.98,-9999.0,NE,6.9,-,N/A,,Clear,40,2013-06-29 07:20:00
9:50 AM,71.6,57.2,60,29.98,-9999.0,NE,4.6,-,N/A,,Clear,40,2013-06-29 07:50:00
10:20 AM,73.4,53.6,50,29.98,6.2,ENE,3.5,-,N/A,,Partly Cloudy,70,2013-06-29 08:20:00
10:50 AM,73.4,53.6,50,29.98,6.2,Variable,5.8,-,N/A,,Partly Cloudy,0,2013-06-29 08:50:00
11:20 AM,73.4,51.8,47,29.98,6.2,North,5.8,-,N/A,,Partly Cloudy,10,2013-06-29 09:20:00
11:50 AM,75.2,50.0,41,29.98,6.2,Variable,6.9,-,N/A,,Partly Cloudy,0,2013-06-29 09:50:00
12:20 PM,77.0,50.0,39,29.95,6.2,North,5.8,-,N/A,,Partly Cloudy,350,2013-06-29 10:20:00
12:50 PM,77.0,48.2,36,29.95,6.2,Variable,5.8,-,N/A,,Partly Cloudy,0,2013-06-29 10:50:00
1:20 PM,-9999,-9999,N/A,-9999,6.2,North,6.9,-,N/A,,Unknown,350,2013-06-29 11:20:00
1:50 PM,78.8,50.0,36,29.95,6.2,NW,5.8,-,N/A,,Scattered Clouds,310,2013-06-29 11:50:00
2:20 PM,75.2,51.8,44,29.95,6.2,WNW,15.0,-,N/A,,Scattered Clouds,300,2013-06-29 12:20:00
2:50 PM,73.4,50.0,44,29.95,6.2,NNE,11.5,-,N/A,,Scattered Clouds,30,2013-06-29 12:50:00
3:20 PM,68.0,51.8,56,29.98,6.2,NE,12.7,24.2,N/A,,Mostly Cloudy,40,2013-06-29 13:20:00
3:50 PM,68.0,55.4,64,29.98,6.2,NE,9.2,-,N/A,,Mostly Cloudy,50,2013-06-29 13:50:00
4:20 PM,64.4,55.4,73,30.01,6.2,North,16.1,-,N/A,Rain,Light Rain,360,2013-06-29 14:20:00
4:50 PM,64.4,57.2,77,29.98,6.2,South,4.6,-,N/A,Rain,Light Rain,180,2013-06-29 14:50:00
5:50 PM,68.0,59.0,73,29.98,6.2,ENE,5.8,-,N/A,,Scattered Clouds,60,2013-06-29 15:50:00
6:20 PM,69.8,57.2,64,29.98,6.2,ENE,5.8,-,N/A,,Scattered Clouds,70,2013-06-29 16:20:00
6:50 PM,69.8,55.4,60,29.98,6.2,Variable,3.5,-,N/A,,Scattered Clouds,0,2013-06-29 16:50:00
7:20 PM,71.6,53.6,53,29.98,6.2,Variable,2.3,-,N/A,,Scattered Clouds,0,2013-06-29 17:20:00
7:50 PM,69.8,55.4,60,29.98,6.2,Variable,2.3,-,N/A,,Mostly Cloudy,0,2013-06-29 17:50:00
8:20 PM,68.0,55.4,64,29.98,6.2,East,3.5,-,N/A,,Mostly Cloudy,90,2013-06-29 18:20:00
8:50 PM,68.0,57.2,68,29.98,6.2,East,3.5,-,N/A,,Mostly Cloudy,90,2013-06-29 18:50:00
9:20 PM,68.0,57.2,68,30.01,6.2,South,1.2,-,N/A,,Mostly Cloudy,180,2013-06-29 19:20:00
9:50 PM,68.0,57.2,68,30.01,6.2,South,1.2,-,N/A,,Mostly Cloudy,180,2013-06-29 19:50:00
10:20 PM,66.2,57.2,73,30.01,6.2,SSE,2.3,-,N/A,,Mostly Cloudy,160,2013-06-29 20:20:00
10:50 PM,66.2,57.2,73,30.01,6.2,Calm,Calm,-,N/A,,Mostly Cloudy,0,2013-06-29 20:50:00
11:20 PM,66.2,55.4,68,30.01,-9999.0,Variable,1.2,-,N/A,,Clear,0,2013-06-29 21:20:00
11:50 PM,64.4,55.4,73,30.01,-9999.0,NNE,3.5,-,N/A,,Clear,30,2013-06-29 21:50:00